Vorticity
5 5 0 1 3 2 3 3 2 3 3 0 -3 1 -3 19 18 15 8 4 -0 1 11 9 15 8 7
5 2 5 5 2 4 2 4 3 -1 -4 -5 -5 -6 3 39 30 13 3 3 6 18 3 17 6 1 16
0 8 1 4 5 4 6 4 -2 4 2 4 8 -3 35 16 12 3 0 4 8 6 18 2 13 12 10
6 2 1 -0 2 3 -1 -2 -2 3 11 1 19 18 22 16 10 5 2 8 13 3 12 7 9 9 10
1 -9 1 -6 -2 -3 -1 5 20 18 23 51 15 20 7 9 1 1 11 4 11 18 -0 11 9 10 9
2 -1 10 9 2 -2 4 19 24 24 22 10 20 20 4 -1 -1 1 18 13 8 2 13 10 10 9 11
4 -0 0 -4 -3 3 6 15 23 24 13 10 -1 4 1 7 10 11 4 6 3 8 11 8 9 9 13
45 51 28 26 24 19 13 15 15 4 6 7 5 6 7 8 7 10 12 9 11 10 9 8 10 10 10
22 -8 12 15 12 -4 27 12 1 2 8 2 3 3 11 11 10 10 10 13 6 5 8 10 8 6 9
13 11 1 1 -1 -0 -10 19 -4 2 9 24 19 11 11 11 11 11 6 4 7 11 9 6 4 5 6
22 9 2 5 3 12 34 25 13 3 9 13 10 12 10 7 6 5 5 8 7 4 5 9 14 12 9
44 18 26 18 9 8 4 2 11 12 10 9 8 8 7 6 6 9 5 5 11 16 13 8 10 9 9
8 9 9 9 10 12 14 14 11 8 6 7 9 8 8 8 11 11 12 13 7 7 8 9 10 10 9
10 13 13 14 14 14 12 12 13 14 12 10 11 10 10 8 6 2 5 9 11 12 14 14 9 11 13
2 4 7 10 13 10 11 12 12 11 9 9 7 6 5 8 15 17 10 10 15 12 17 15 13 10 12
7 8 12 15 5 8 6 5 4 3 6 8 9 6 15 13 3 -1 9 13 12 7 6 8 16 12 17
10 5 3 3 8 13 7 5 3 7 11 4 7 4 -5 -6 9 0 -3 5 13 7 8 18 19 15 13
Height
5767 5769 5769 5770 5770 5770 5769 5767 5763 5760 5757 5754 5751 5747 5743 5737 5733 5729 5724 5720 5716 5711 5705 5699 5693 5689 5683
5755 5757 5757 5757 5757 5757 5755 5753 5750 5747 5744 5741 5738 5736 5730 5724 5719 5717 5713 5709 5704 5698 5693 5688 5681 5676 5671
5743 5744 5745 5744 5743 5742 5741 5738 5735 5734 5732 5730 5727 5722 5716 5711 5708 5705 5701 5696 5692 5687 5681 5675 5670 5665 5660
5730 5730 5731 5729 5729 5728 5727 5727 5726 5724 5721 5717 5713 5708 5704 5700 5697 5694 5689 5685 5680 5675 5671 5665 5659 5653 5648
5715 5716 5716 5715 5715 5716 5718 5715 5714 5711 5706 5702 5699 5698 5694 5691 5687 5682 5677 5672 5668 5663 5658 5653 5648 5642 5635
5702 5704 5704 5704 5704 5704 5702 5702 5697 5695 5692 5690 5688 5686 5683 5679 5675 5671 5666 5661 5657 5652 5646 5641 5636 5630 5623
5689 5691 5691 5691 5689 5689 5690 5689 5685 5682 5681 5679 5676 5674 5670 5667 5663 5659 5654 5649 5645 5640 5636 5631 5624 5619 5612
5676 5676 5677 5677 5674 5674 5675 5674 5673 5671 5670 5668 5664 5661 5658 5655 5651 5647 5642 5638 5634 5628 5624 5618 5612 5607 5600
5663 5664 5666 5664 5664 5664 5663 5661 5659 5658 5656 5653 5651 5649 5647 5643 5638 5635 5631 5626 5621 5616 5611 5605 5600 5595 5587
5649 5651 5653 5652 5651 5649 5649 5648 5646 5646 5645 5644 5640 5637 5635 5631 5627 5623 5619 5614 5609 5604 5599 5593 5589 5583 5574
5640 5642 5639 5639 5639 5640 5639 5637 5636 5635 5633 5631 5629 5626 5623 5620 5615 5611 5606 5602 5596 5591 5585 5580 5574 5567 5562
5629 5629 5628 5628 5628 5628 5627 5626 5626 5624 5622 5620 5617 5614 5611 5608 5604 5599 5595 5590 5584 5578 5571 5565 5558 5551 5544
5619 5619 5619 5619 5618 5618 5617 5617 5615 5613 5611 5609 5606 5603 5600 5596 5592 5587 5582 5577 5571 5565 5557 5550 5543 5536 5529
5609 5610 5610 5609 5609 5608 5607 5607 5606 5603 5601 5598 5595 5591 5587 5584 5580 5576 5572 5565 5559 5553 5545 5533 5524 5518 5512
5600 5600 5600 5599 5599 5598 5597 5596 5594 5592 5590 5587 5584 5581 5577 5573 5570 5566 5560 5554 5547 5541 5533 5521 5505 5500 5492
5590 5590 5589 5589 5588 5587 5586 5585 5584 5581 5579 5575 5573 5570 5567 5563 5559 5555 5549 5541 5533 5525 5518 5510 5494 5481 5475
5578 5578 5578 5578 5577 5576 5575 5574 5572 5570 5568 5564 5561 5558 5555 5552 5548 5541 5534 5527 5519 5509 5502 5493 5484 5471 5463